Location: ?????
(31.8092°N, 35.2590°E)
Time: 19:43:13
(UTC+00:00)

Cosmos 1674 - Pass Details

Date: 20 June 2021
Orbit: 494 x 515 km, 82.5° (Epoch: 23 July)

Event Time Altitude Azimuth Distance (km) Brightness Sun altitude
Exits shadow 17:31:35 12° 120° (ESE) 1,588 4.5 -8.8°
Maximum altitude 17:33:21 15° 89° (E) 1,389 4.4 -9.1°
Drops below altitude 10° 17:35:34 10° 51° (NE) 1,695 5.2 -9.5°
Sets 17:38:21 0° 29° (NNE) 2,580 6.3 -10.0°
